This is the latest recevied weather packets stored in our database for station/object KJ7HSW. If no packets are shown the sender has not sent any weather packets the latest 10 day(s).
| Time | Temp. | Humidity | Pressure | Rain* | Wind** | Luminosity | Snow |
|---|---|---|---|---|---|---|---|
| 1777161921 | 18.89° C | 30% | 1008.8 hPa | 0 mm | - | 59 W/m² | - |
| 1777161617 | 20° C | 25% | 1009 hPa | 0 mm | - | 151 W/m² | - |
| 1777161314 | 19.44° C | 26% | 1008.9 hPa | 0 mm | - | 415 W/m² | - |
| 1777161010 | 19.44° C | 24% | 1008.9 hPa | 0 mm | - | 427 W/m² | - |
| 1777160706 | 20° C | 24% | 1008.9 hPa | 0 mm | - | 447 W/m² | - |
| 1777160400 | 20° C | 22% | 1008.8 hPa | 0 mm | - | 460 W/m² | - |
| 1777160097 | 20° C | 23% | 1009 hPa | 0 mm | - | 472 W/m² | - |
| 1777159793 | 20.56° C | 21% | 1009 hPa | 0 mm | - | 486 W/m² | - |
| 1777159489 | 20.56° C | 21% | 1009 hPa | 0 mm | - | 503 W/m² | - |
| 1777159186 | 20.56° C | 17% | 1009.1 hPa | 0 mm | - | 518 W/m² | - |
| 1777158883 | 20° C | 15% | 1009.1 hPa | 0 mm | - | 534 W/m² | - |
| 1777158580 | 20° C | 17% | 1009.3 hPa | 0 mm | - | 550 W/m² | - |
| 1777158277 | 20.56° C | 17% | 1009.3 hPa | 0 mm | - | 566 W/m² | - |
| 1777157973 | 20° C | 15% | 1009.4 hPa | 0 mm | - | 571 W/m² | - |
| 1777157669 | 20° C | 18% | 1009.3 hPa | 0 mm | - | 591 W/m² | - |
| 1777157366 | 20.56° C | 15% | 1009.4 hPa | 0 mm | - | 607 W/m² | - |
| 1777157066 | 20.56° C | 18% | 1009.6 hPa | 0 mm | - | 621 W/m² | - |
| 1777156761 | 21.11° C | 14% | 1009.6 hPa | 0 mm | - | 632 W/m² | - |
| 1777156457 | 20.56° C | 20% | 1009.7 hPa | 0 mm | - | 644 W/m² | - |
| 1777156153 | 20° C | 16% | 1009.6 hPa | 0 mm | - | 655 W/m² | - |
| 1777155850 | 20° C | 18% | 1009.7 hPa | 0 mm | - | 665 W/m² | - |
| 1777155544 | 20° C | 21% | 1009.7 hPa | 0 mm | - | 678 W/m² | - |
| 1777155242 | 20° C | 15% | 1009.7 hPa | 0 mm | - | 686 W/m² | - |
| 1777154939 | 20° C | 14% | 1009.9 hPa | 0 mm | - | 699 W/m² | - |
| 1777154636 | 20° C | 19% | 1010.1 hPa | 0 mm | - | 710 W/m² | - |
* Rain latest hour (hover to see other rain measurements)
** Current wind speed in m/s (hover to see current wind gust speed)